Voltar ao catálogo

STARLINK-5382

AtivoComunicaçõesVLEO
NORAD 54820·PAYLOAD·🇺🇸 United States

Lançado Dec 28, 2022 de Cape Canaveral Space Force Station

Loading…

Próximas Passagens (próximas 24 horas)

TLE

AtualizadoSource: CelesTrak SupGP

Época: Sep 14, 2026, 21:37 UTC

1 54820C 22177A   26257.90118056 -.00059448  00000+0 -21534-2 0  2575
2 54820  43.0005 147.2870 0001410 250.6214  99.5473 15.27605226    12

Acompanhe STARLINK-5382 em tempo real com AllMySat

Download on the App Store